START_TIME,STEP,MOV.,M29,t_acc.,H22,t_acc.,H26,t_acc.,H30,t_acc.
1979-07-31 00:00:30.900 ,0,0,0.,24.0,0.,24.0,0.,24.0,0.,24.0
1979-07-31 00:00:54.900 ,1,1,0.,24.0,0.,24.0,0.,24.0,0.,24.0
1979-07-31 00:01:18.900 ,1,0,0.,24.0,0.,24.0,0.,24.0,0.,24.0
1979-07-31 00:01:42.900 ,2,1,0.,24.0,0.,24.0,0.,24.0,0.,24.0
1979-07-31 00:02:06.900 ,2,0,0.,24.0,0.,24.0,0.,24.0,0.,24.0
1979-07-31 00:02:30.900 ,3,1,0.,24.0,0.,24.0,0.,24.0,0.,24.0
1979-07-31 00:02:54.900 ,3,0,0.,24.0,0.,24.0,0.,24.0,0.,24.0
1979-07-31 00:03:18.900 ,4,1,0.,24.0,0.,24.0,0.,24.0,0.,24.0
1979-07-31 00:03:42.900 ,4,0,0.,24.0,0.,24.0,0.,24.0,0.,24.0
1979-07-31 00:04:06.900 ,5,1,0.,24.0,0.,24.0,0.,24.0,0.,24.0
1979-07-31 00:04:30.900 ,5,0,0.,24.0,0.,24.0,0.,24.0,0.,24.0
1979-07-31 00:04:54.900 ,6,1,0.,24.0,0.,24.0,0.,24.0,0.,24.0
1979-07-31 00:05:18.900 ,6,0,0.,24.0,0.,24.0,0.,24.0,0.,24.0
1979-07-31 00:05:42.900 ,7,1,0.,24.0,0.,24.0,0.,24.0,0.,24.0
1979-07-31 00:06:06.900 ,7,0,0.,24.0,0.,24.0,0.,24.0,0.,24.0
1979-07-31 00:06:30.900 ,7,1,0.,24.0,0.,24.0,0.,24.0,0.,24.0
1979-07-31 00:06:54.900 ,7,0,0.,24.0,0.,24.0,0.,24.0,0.,24.0
1979-07-31 00:07:18.900 ,6,1,0.,24.0,0.,24.0,0.,24.0,0.,24.0
1979-07-31 00:07:42.900 ,6,0,0.,24.0,0.,24.0,0.,24.0,0.,24.0
1979-07-31 00:08:06.900 ,5,1,0.,24.0,0.,24.0,0.,24.0,0.,24.0
1979-07-31 00:08:30.900 ,5,0,0.,24.0,0.,24.0,0.,24.0,0.,24.0
1979-07-31 00:08:54.900 ,4,1,0.,24.0,0.,24.0,0.,24.0,0.,24.0
1979-07-31 00:09:18.900 ,4,0,0.,24.0,0.,24.0,0.,24.0,0.,24.0
1979-07-31 00:09:42.900 ,3,1,0.,24.0,0.,24.0,0.,24.0,0.,24.0
1979-07-31 00:10:06.900 ,3,0,0.,24.0,0.,24.0,0.,24.0,0.,24.0
1979-07-31 00:10:30.900 ,2,1,0.,24.0,0.,24.0,0.,24.0,0.,24.0
1979-07-31 00:10:54.900 ,2,0,0.,24.0,0.,24.0,0.,24.0,0.,24.0
1979-07-31 00:11:18.900 ,1,1,0.,24.0,0.,24.0,0.,24.0,1.,24.0
1979-07-31 00:11:42.900 ,1,0,0.,24.0,0.,24.0,0.,24.0,0.,24.0
1979-07-31 00:12:06.900 ,0,1,0.,24.0,0.,24.0,0.,24.0,0.,24.0
1979-07-31 00:12:30.900 ,0,0,0.,24.0,0.,24.0,0.,24.0,0.,24.0
1979-07-31 00:12:54.900 ,0,1,0.,24.0,0.,24.0,0.,24.0,0.,24.0
1979-07-31 00:13:18.900 ,0,0,0.,24.0,0.,24.0,0.,24.0,0.,24.0
1979-07-31 00:13:42.900 ,1,1,0.,24.0,0.,24.0,0.,24.0,0.,24.0
1979-07-31 00:14:06.900 ,1,0,0.,24.0,0.,24.0,0.,24.0,0.,24.0
1979-07-31 00:14:30.900 ,2,1,0.,24.0,0.,24.0,0.,24.0,0.,24.0
1979-07-31 00:14:54.900 ,2,0,0.,24.0,0.,24.0,0.,24.0,0.,24.0
1979-07-31 00:15:18.900 ,3,1,0.,24.0,0.,24.0,0.,24.0,0.,24.0
1979-07-31 00:15:42.900 ,3,0,0.,24.0,0.,24.0,0.,24.0,0.,24.0
1979-07-31 00:16:06.900 ,4,1,0.,24.0,0.,24.0,0.,24.0,0.,24.0
1979-07-31 00:16:30.900 ,4,0,0.,24.0,0.,24.0,0.,24.0,0.,24.0
1979-07-31 00:16:54.900 ,5,1,0.,24.0,0.,24.0,0.,24.0,0.,24.0
1979-07-31 00:17:18.900 ,5,0,0.,24.0,0.,24.0,0.,24.0,0.,24.0
1979-07-31 00:17:42.900 ,6,1,0.,24.0,0.,24.0,0.,24.0,0.,24.0
1979-07-31 00:18:06.900 ,6,0,0.,24.0,0.,24.0,0.,24.0,0.,24.0
1979-07-31 00:18:30.900 ,7,0,0.,24.0,0.,24.0,0.,24.0,0.,24.0
1979-07-31 00:18:54.900 ,7,0,0.,24.0,0.,24.0,0.,24.0,0.,24.0
1979-07-31 00:19:18.900 ,5,1,0.,24.0,0.,24.0,0.,24.0,0.,24.0
1979-07-31 00:19:42.900 ,1,1,0.,24.0,0.,24.0,0.,24.0,0.,24.0
1979-07-31 00:20:06.900 ,2,1,0.,24.0,0.,24.0,0.,24.0,0.,24.0
1979-07-31 00:20:30.900 ,6,1,0.,24.0,0.,24.0,0.,24.0,0.,24.0
1979-07-31 00:20:54.900 ,5,1,0.,24.0,0.,24.0,0.,24.0,0.,24.0
1979-07-31 00:21:18.900 ,1,1,0.,24.0,0.,24.0,0.,24.0,0.,24.0
1979-07-31 00:21:42.900 ,2,1,0.,24.0,0.,24.0,0.,24.0,0.,24.0
1979-07-31 00:22:06.900 ,6,1,0.,24.0,0.,24.0,0.,24.0,0.,24.0
1979-07-31 00:22:30.900 ,5,1,1.,24.0,0.,24.0,0.,24.0,0.,24.0
1979-07-31 00:22:54.900 ,1,1,1.,24.0,0.,24.0,0.,24.0,0.,24.0
1979-07-31 00:23:18.900 ,2,1,0.,24.0,0.,24.0,0.,24.0,0.,24.0
1979-07-31 00:23:42.900 ,6,1,0.,24.0,0.,24.0,0.,24.0,0.,24.0
1979-07-31 00:24:06.900 ,5,1,0.,24.0,0.,24.0,0.,24.0,0.,24.0
1979-07-31 00:24:30.900 ,1,1,0.,24.0,0.,24.0,0.,24.0,0.,24.0
1979-07-31 00:24:54.900 ,2,1,0.,24.0,0.,24.0,0.,24.0,0.,24.0
1979-07-31 00:25:18.900 ,6,1,0.,24.0,0.,24.0,0.,24.0,0.,24.0
1979-07-31 00:25:42.900 ,5,1,0.,24.0,0.,24.0,0.,24.0,0.,24.0
1979-07-31 00:26:06.900 ,1,1,0.,24.0,0.,24.0,0.,24.0,0.,24.0
1979-07-31 00:26:30.900 ,2,1,0.,24.0,0.,24.0,0.,24.0,0.,24.0
1979-07-31 00:26:54.900 ,6,1,0.,24.0,0.,24.0,0.,24.0,0.,24.0
1979-07-31 00:27:18.900 ,5,1,0.,24.0,0.,24.0,0.,24.0,0.,24.0
1979-07-31 00:27:42.900 ,1,1,0.,24.0,0.,24.0,0.,24.0,0.,24.0
1979-07-31 00:28:06.900 ,2,1,0.,24.0,0.,24.0,0.,24.0,0.,24.0
1979-07-31 00:28:30.900 ,6,1,0.,24.0,0.,24.0,0.,24.0,0.,24.0
1979-07-31 00:28:54.900 ,5,1,0.,24.0,0.,24.0,0.,24.0,0.,24.0
1979-07-31 00:29:18.900 ,1,1,0.,24.0,0.,24.0,0.,24.0,0.,24.0
1979-07-31 00:29:42.900 ,0,0,0.,24.0,0.,24.0,0.,24.0,0.,24.0
1979-07-31 00:30:06.900 ,0,0,0.,24.0,0.,24.0,0.,24.0,0.,24.0
1979-07-31 00:30:30.900 ,5,1,0.,24.0,0.,24.0,0.,24.0,0.,24.0
1979-07-31 00:30:54.900 ,5,0,0.,24.0,0.,24.0,0.,24.0,0.,24.0
1979-07-31 00:31:18.900 ,4,1,0.,24.0,0.,24.0,0.,24.0,0.,24.0
1979-07-31 00:31:42.900 ,4,0,0.,24.0,0.,24.0,0.,24.0,0.,24.0
1979-07-31 00:32:06.900 ,3,1,0.,24.0,0.,24.0,0.,24.0,0.,24.0
1979-07-31 00:32:30.900 ,3,0,0.,24.0,0.,24.0,0.,24.0,0.,24.0
1979-07-31 00:32:54.900 ,2,1,0.,24.0,0.,24.0,0.,24.0,0.,24.0
1979-07-31 00:33:18.900 ,2,0,2.,24.0,0.,24.0,0.,24.0,0.,24.0
1979-07-31 00:33:42.900 ,1,1,0.,24.0,0.,24.0,0.,24.0,0.,24.0
1979-07-31 00:34:06.900 ,1,0,0.,24.0,0.,24.0,0.,24.0,0.,24.0
1979-07-31 00:34:30.900 ,0,1,0.,24.0,0.,24.0,0.,24.0,0.,24.0
1979-07-31 00:34:54.900 ,0,0,0.,24.0,0.,24.0,0.,24.0,0.,24.0
1979-07-31 00:35:18.900 ,0,1,0.,24.0,0.,24.0,0.,24.0,0.,24.0
1979-07-31 00:35:42.900 ,0,0,0.,24.0,0.,24.0,0.,24.0,0.,24.0
1979-07-31 00:36:06.900 ,1,1,0.,24.0,0.,24.0,0.,24.0,0.,24.0
1979-07-31 00:36:30.900 ,1,0,0.,24.0,0.,24.0,0.,24.0,0.,24.0
1979-07-31 00:36:54.900 ,2,1,0.,24.0,0.,24.0,0.,24.0,0.,24.0
1979-07-31 00:37:18.900 ,2,0,0.,24.0,0.,24.0,0.,24.0,0.,24.0
1979-07-31 00:37:42.900 ,3,1,0.,24.0,0.,24.0,0.,24.0,0.,24.0
1979-07-31 00:38:06.900 ,3,0,0.,24.0,0.,24.0,0.,24.0,0.,24.0
1979-07-31 00:38:30.900 ,4,1,0.,24.0,0.,24.0,0.,24.0,0.,24.0
1979-07-31 00:38:54.900 ,4,0,0.,24.0,0.,24.0,0.,24.0,0.,24.0
1979-07-31 00:39:18.900 ,5,1,0.,24.0,0.,24.0,0.,24.0,0.,24.0
1979-07-31 00:39:42.900 ,5,0,0.,24.0,0.,24.0,0.,24.0,0.,24.0
1979-07-31 00:40:06.900 ,6,1,0.,24.0,0.,24.0,0.,24.0,0.,24.0
1979-07-31 00:40:30.900 ,6,0,0.,24.0,0.,24.0,0.,24.0,0.,24.0
1979-07-31 00:40:54.900 ,7,1,0.,24.0,0.,24.0,0.,24.0,0.,24.0
1979-07-31 00:41:18.900 ,7,0,0.,24.0,0.,24.0,0.,24.0,0.,24.0
1979-07-31 00:41:42.900 ,7,1,0.,24.0,0.,24.0,0.,24.0,0.,24.0
1979-07-31 00:42:06.900 ,7,0,0.,24.0,0.,24.0,0.,24.0,0.,24.0
1979-07-31 00:42:30.900 ,6,1,0.,24.0,0.,24.0,0.,24.0,0.,24.0
1979-07-31 00:42:54.900 ,6,0,0.,24.0,0.,24.0,0.,24.0,0.,24.0
1979-07-31 00:43:18.900 ,5,1,0.,24.0,0.,24.0,0.,24.0,0.,24.0
1979-07-31 00:43:42.900 ,5,0,0.,24.0,0.,24.0,0.,24.0,0.,24.0
1979-07-31 00:44:06.900 ,4,1,0.,24.0,0.,24.0,0.,24.0,0.,24.0
1979-07-31 00:44:30.900 ,4,0,0.,24.0,0.,24.0,0.,24.0,0.,24.0
1979-07-31 00:44:54.900 ,3,1,0.,24.0,0.,24.0,0.,24.0,0.,24.0
1979-07-31 00:45:18.900 ,3,0,0.,24.0,0.,24.0,0.,24.0,0.,24.0
1979-07-31 00:45:42.900 ,2,1,0.,24.0,0.,24.0,0.,24.0,0.,24.0
1979-07-31 00:46:06.900 ,2,0,0.,24.0,0.,24.0,0.,24.0,0.,24.0
1979-07-31 00:46:30.900 ,1,1,0.,24.0,0.,24.0,0.,24.0,0.,24.0
1979-07-31 00:46:54.900 ,1,0,0.,24.0,0.,24.0,0.,24.0,0.,24.0
1979-07-31 00:47:18.900 ,0,1,0.,24.0,0.,24.0,0.,24.0,0.,24.0
1979-07-31 00:47:42.900 ,0,0,0.,24.0,0.,24.0,0.,24.0,0.,24.0
1979-07-31 00:48:06.900 ,0,1,0.,24.0,0.,24.0,0.,24.0,0.,24.0
1979-07-31 00:48:30.900 ,0,0,0.,24.0,0.,24.0,0.,24.0,0.,24.0
1979-07-31 00:48:54.900 ,1,1,0.,24.0,0.,24.0,0.,24.0,0.,24.0
1979-07-31 00:49:18.900 ,1,0,0.,24.0,0.,24.0,0.,24.0,0.,24.0
1979-07-31 00:49:42.900 ,2,1,0.,24.0,0.,24.0,0.,24.0,0.,24.0
1979-07-31 00:50:06.900 ,2,0,0.,24.0,0.,24.0,0.,24.0,0.,24.0
1979-07-31 00:50:30.900 ,3,1,0.,24.0,0.,24.0,0.,24.0,0.,24.0
1979-07-31 00:50:54.900 ,3,0,0.,24.0,0.,24.0,0.,24.0,0.,24.0
1979-07-31 00:51:18.900 ,4,1,0.,24.0,0.,24.0,0.,24.0,0.,24.0
1979-07-31 00:51:42.900 ,4,0,0.,24.0,0.,24.0,0.,24.0,0.,24.0
1979-07-31 00:52:06.900 ,5,1,0.,24.0,0.,24.0,0.,24.0,0.,24.0
1979-07-31 00:52:30.900 ,5,0,0.,24.0,0.,24.0,0.,24.0,0.,24.0
1979-07-31 00:52:54.900 ,6,1,0.,24.0,0.,24.0,0.,24.0,0.,24.0
1979-07-31 00:53:18.900 ,6,0,0.,24.0,0.,24.0,0.,24.0,0.,24.0
1979-07-31 00:53:42.900 ,7,1,0.,24.0,0.,24.0,0.,24.0,0.,24.0
1979-07-31 00:54:06.900 ,7,0,0.,24.0,0.,24.0,0.,24.0,0.,24.0
1979-07-31 00:54:30.900 ,7,1,0.,24.0,0.,24.0,0.,24.0,0.,24.0
1979-07-31 00:54:54.900 ,7,0,0.,24.0,0.,24.0,0.,24.0,0.,24.0
1979-07-31 00:55:18.900 ,6,1,0.,24.0,0.,24.0,0.,24.0,0.,24.0
1979-07-31 00:55:42.900 ,6,0,0.,24.0,0.,24.0,0.,24.0,0.,24.0
1979-07-31 00:56:06.900 ,5,1,0.,24.0,0.,24.0,0.,24.0,0.,24.0
1979-07-31 00:56:30.900 ,5,0,0.,24.0,0.,24.0,0.,24.0,0.,24.0
1979-07-31 00:56:54.900 ,4,1,0.,24.0,0.,24.0,0.,24.0,0.,24.0
1979-07-31 00:57:18.900 ,4,0,0.,24.0,0.,24.0,0.,24.0,0.,24.0
1979-07-31 00:57:42.900 ,3,1,0.,24.0,0.,24.0,0.,24.0,0.,24.0
1979-07-31 00:58:06.900 ,3,0,0.,24.0,0.,24.0,0.,24.0,0.,24.0
1979-07-31 00:58:30.900 ,2,1,1.,24.0,0.,24.0,0.,24.0,0.,24.0
1979-07-31 00:58:54.900 ,2,0,0.,24.0,0.,24.0,0.,24.0,0.,24.0
1979-07-31 00:59:18.900 ,1,1,0.,24.0,0.,24.0,0.,24.0,0.,24.0
1979-07-31 00:59:42.900 ,1,0,0.,24.0,0.,24.0,0.,24.0,0.,24.0
1979-07-31 01:00:06.900 ,0,1,0.,24.0,0.,24.0,0.,24.0,0.,24.0
1979-07-31 01:00:30.900 ,0,0,0.,24.0,0.,24.0,0.,24.0,0.,24.0
1979-07-31 01:00:54.900 ,0,1,0.,24.0,0.,24.0,0.,24.0,0.,24.0
1979-07-31 01:01:18.900 ,0,0,0.,24.0,0.,24.0,0.,24.0,0.,24.0
1979-07-31 01:01:42.900 ,1,1,0.,24.0,0.,24.0,0.,24.0,0.,24.0
1979-07-31 01:02:06.900 ,1,0,0.,24.0,0.,24.0,0.,24.0,0.,24.0
1979-07-31 01:02:30.900 ,2,1,0.,24.0,0.,24.0,0.,24.0,0.,24.0
1979-07-31 01:02:54.900 ,2,0,0.,24.0,0.,24.0,0.,24.0,0.,24.0
1979-07-31 01:03:18.900 ,3,1,0.,24.0,0.,24.0,0.,24.0,0.,24.0
1979-07-31 01:03:42.900 ,3,0,0.,24.0,0.,24.0,0.,24.0,0.,24.0
1979-07-31 01:04:06.900 ,4,1,0.,24.0,0.,24.0,0.,24.0,0.,24.0
1979-07-31 01:04:30.900 ,4,0,0.,24.0,0.,24.0,0.,24.0,0.,24.0
1979-07-31 01:04:54.900 ,5,1,0.,24.0,0.,24.0,0.,24.0,0.,24.0
1979-07-31 01:05:18.900 ,5,0,0.,24.0,0.,24.0,0.,24.0,0.,24.0
1979-07-31 01:05:42.900 ,6,1,1.,24.0,0.,24.0,0.,24.0,0.,24.0
1979-07-31 01:06:06.900 ,6,0,0.,24.0,0.,24.0,0.,24.0,0.,24.0
1979-07-31 01:06:30.900 ,7,0,0.,24.0,0.,24.0,0.,24.0,0.,24.0
1979-07-31 01:06:54.900 ,7,0,0.,24.0,0.,24.0,0.,24.0,0.,24.0
1979-07-31 01:07:18.900 ,5,1,0.,24.0,0.,24.0,0.,24.0,0.,24.0
1979-07-31 01:07:42.900 ,1,1,0.,24.0,0.,24.0,0.,24.0,0.,24.0
1979-07-31 01:08:06.900 ,2,1,0.,24.0,0.,24.0,0.,24.0,0.,24.0
1979-07-31 01:08:30.900 ,6,1,0.,24.0,0.,24.0,0.,24.0,0.,24.0
1979-07-31 01:08:54.900 ,5,1,0.,24.0,0.,24.0,0.,24.0,0.,24.0
1979-07-31 01:09:18.900 ,1,1,0.,24.0,0.,24.0,0.,24.0,0.,24.0
1979-07-31 01:09:42.900 ,2,1,0.,24.0,0.,24.0,0.,24.0,0.,24.0
1979-07-31 01:10:06.900 ,6,1,0.,24.0,0.,24.0,0.,24.0,0.,24.0
1979-07-31 01:10:30.900 ,5,1,0.,24.0,0.,24.0,0.,24.0,0.,24.0
1979-07-31 01:10:54.900 ,1,1,0.,24.0,0.,24.0,0.,24.0,0.,24.0
1979-07-31 01:11:18.900 ,2,1,0.,24.0,0.,24.0,0.,24.0,0.,24.0
1979-07-31 01:11:42.900 ,6,1,0.,24.0,0.,24.0,0.,24.0,0.,24.0
1979-07-31 01:12:06.900 ,5,1,0.,24.0,0.,24.0,0.,24.0,0.,24.0
1979-07-31 01:12:30.900 ,1,1,0.,24.0,0.,24.0,0.,24.0,0.,24.0
1979-07-31 01:12:54.900 ,2,1,0.,24.0,0.,24.0,0.,24.0,0.,24.0
1979-07-31 01:13:18.900 ,6,1,0.,24.0,0.,24.0,0.,24.0,0.,24.0
1979-07-31 01:13:42.900 ,5,1,0.,24.0,0.,24.0,0.,24.0,0.,24.0
1979-07-31 01:14:06.900 ,1,1,0.,24.0,0.,24.0,0.,24.0,0.,24.0
1979-07-31 01:14:30.900 ,2,1,0.,24.0,0.,24.0,0.,24.0,0.,24.0
1979-07-31 01:14:54.900 ,6,1,0.,24.0,0.,24.0,0.,24.0,0.,24.0
1979-07-31 01:15:18.900 ,5,1,0.,24.0,0.,24.0,0.,24.0,0.,24.0
1979-07-31 01:15:42.900 ,1,1,1.,24.0,0.,24.0,0.,24.0,0.,24.0
1979-07-31 01:16:06.900 ,2,1,0.,24.0,0.,24.0,0.,24.0,0.,24.0
1979-07-31 01:16:30.900 ,6,1,0.,24.0,0.,24.0,0.,24.0,0.,24.0
1979-07-31 01:16:54.900 ,5,1,0.,24.0,0.,24.0,0.,24.0,0.,24.0
1979-07-31 01:17:18.900 ,1,1,0.,24.0,0.,24.0,0.,24.0,0.,24.0
1979-07-31 01:17:42.900 ,0,0,1.,24.0,0.,24.0,0.,24.0,0.,24.0
1979-07-31 01:18:06.900 ,0,0,0.,24.0,0.,24.0,0.,24.0,0.,24.0
1979-07-31 01:18:30.900 ,5,1,0.,24.0,0.,24.0,0.,24.0,0.,24.0
1979-07-31 01:18:54.900 ,5,0,0.,24.0,0.,24.0,0.,24.0,0.,24.0
1979-07-31 01:19:18.900 ,4,1,0.,24.0,0.,24.0,0.,24.0,0.,24.0
1979-07-31 01:19:42.900 ,4,0,0.,24.0,0.,24.0,0.,24.0,0.,24.0
1979-07-31 01:20:06.900 ,3,1,0.,24.0,0.,24.0,0.,24.0,0.,24.0
1979-07-31 01:20:30.900 ,3,0,0.,24.0,0.,24.0,0.,24.0,0.,24.0
1979-07-31 01:20:54.900 ,2,1,0.,24.0,0.,24.0,0.,24.0,0.,24.0
1979-07-31 01:21:18.900 ,2,0,0.,24.0,0.,24.0,0.,24.0,0.,24.0
1979-07-31 01:21:42.900 ,1,1,0.,24.0,0.,24.0,0.,24.0,0.,24.0
1979-07-31 01:22:06.900 ,1,0,0.,24.0,0.,24.0,0.,24.0,0.,24.0
1979-07-31 01:22:30.900 ,0,1,0.,24.0,0.,24.0,0.,24.0,0.,24.0
1979-07-31 01:22:54.900 ,0,0,0.,24.0,0.,24.0,0.,24.0,0.,24.0
1979-07-31 01:23:18.900 ,0,1,0.,24.0,0.,24.0,0.,24.0,0.,24.0
1979-07-31 01:23:42.900 ,0,0,0.,24.0,0.,24.0,0.,24.0,0.,24.0
1979-07-31 01:24:06.900 ,1,1,0.,24.0,0.,24.0,0.,24.0,0.,24.0
1979-07-31 01:24:30.900 ,1,0,0.,24.0,0.,24.0,0.,24.0,0.,24.0
1979-07-31 01:24:54.900 ,2,1,0.,24.0,0.,24.0,0.,24.0,0.,24.0
1979-07-31 01:25:18.900 ,2,0,0.,24.0,0.,24.0,0.,24.0,0.,24.0
1979-07-31 01:25:42.900 ,3,1,0.,24.0,0.,24.0,0.,24.0,0.,24.0
1979-07-31 01:26:06.900 ,3,0,0.,24.0,0.,24.0,0.,24.0,0.,24.0
1979-07-31 01:26:30.900 ,4,1,0.,24.0,0.,24.0,0.,24.0,0.,24.0
1979-07-31 01:26:54.900 ,4,0,0.,24.0,0.,24.0,0.,24.0,0.,24.0
1979-07-31 01:27:18.900 ,5,1,0.,24.0,0.,24.0,0.,24.0,0.,24.0
1979-07-31 01:27:42.900 ,5,0,0.,24.0,0.,24.0,0.,24.0,0.,24.0
1979-07-31 01:28:06.900 ,6,1,0.,24.0,0.,24.0,0.,24.0,0.,24.0
1979-07-31 01:28:30.900 ,6,0,0.,24.0,0.,24.0,0.,24.0,0.,24.0
1979-07-31 01:28:54.900 ,7,1,0.,24.0,0.,24.0,0.,24.0,0.,24.0
1979-07-31 01:29:18.900 ,7,0,1.,24.0,0.,24.0,0.,24.0,0.,24.0
1979-07-31 01:29:42.900 ,7,1,0.,24.0,0.,24.0,0.,24.0,0.,24.0
1979-07-31 01:30:06.900 ,7,0,0.,24.0,0.,24.0,0.,24.0,0.,24.0
1979-07-31 01:30:30.900 ,6,1,0.,24.0,0.,24.0,0.,24.0,0.,24.0
1979-07-31 01:30:54.900 ,6,0,0.,24.0,0.,24.0,0.,24.0,0.,24.0
1979-07-31 01:31:18.900 ,5,1,0.,24.0,0.,24.0,0.,24.0,0.,24.0
1979-07-31 01:31:42.900 ,5,0,0.,24.0,0.,24.0,0.,24.0,0.,24.0
1979-07-31 01:32:06.900 ,4,1,0.,24.0,0.,24.0,0.,24.0,0.,24.0
1979-07-31 01:32:30.900 ,4,0,0.,24.0,0.,24.0,0.,24.0,0.,24.0
1979-07-31 01:32:54.900 ,3,1,0.,24.0,0.,24.0,0.,24.0,0.,24.0
1979-07-31 01:33:18.900 ,3,0,0.,24.0,0.,24.0,0.,24.0,0.,24.0
1979-07-31 01:33:42.900 ,2,1,0.,24.0,0.,24.0,0.,24.0,0.,24.0
1979-07-31 01:34:06.900 ,2,0,0.,24.0,0.,24.0,0.,24.0,0.,24.0
1979-07-31 01:34:30.900 ,1,1,0.,24.0,0.,24.0,0.,24.0,0.,24.0
1979-07-31 01:34:54.900 ,1,0,0.,24.0,0.,24.0,0.,24.0,0.,24.0
1979-07-31 01:35:18.900 ,0,1,0.,24.0,0.,24.0,0.,24.0,0.,24.0
1979-07-31 01:35:42.900 ,0,0,0.,24.0,0.,24.0,0.,24.0,0.,24.0
1979-07-31 01:36:06.900 ,0,1,0.,24.0,0.,24.0,0.,24.0,0.,24.0
1979-07-31 01:36:30.900 ,0,0,0.,24.0,0.,24.0,0.,24.0,0.,24.0
1979-07-31 01:36:54.900 ,1,1,0.,24.0,0.,24.0,0.,24.0,0.,24.0
1979-07-31 01:37:18.900 ,1,0,0.,24.0,0.,24.0,0.,24.0,0.,24.0
1979-07-31 01:37:42.900 ,2,1,0.,24.0,0.,24.0,0.,24.0,0.,24.0
1979-07-31 01:38:06.900 ,2,0,0.,24.0,0.,24.0,0.,24.0,0.,24.0
1979-07-31 01:38:30.900 ,3,1,0.,24.0,0.,24.0,0.,24.0,0.,24.0
1979-07-31 01:38:54.900 ,3,0,0.,24.0,0.,24.0,0.,24.0,0.,24.0
1979-07-31 01:39:18.900 ,4,1,0.,24.0,0.,24.0,0.,24.0,0.,24.0
1979-07-31 01:39:42.900 ,4,0,0.,24.0,0.,24.0,0.,24.0,0.,24.0
1979-07-31 01:40:06.900 ,5,1,0.,24.0,0.,24.0,0.,24.0,0.,24.0
1979-07-31 01:40:30.900 ,5,0,0.,24.0,0.,24.0,0.,24.0,0.,24.0
1979-07-31 01:40:54.900 ,6,1,0.,24.0,0.,24.0,0.,24.0,0.,24.0
1979-07-31 01:41:18.900 ,6,0,1.,24.0,0.,24.0,0.,24.0,0.,24.0
1979-07-31 01:41:42.900 ,7,1,0.,24.0,0.,24.0,0.,24.0,0.,24.0
1979-07-31 01:42:06.900 ,7,0,0.,24.0,0.,24.0,0.,24.0,0.,24.0
1979-07-31 01:42:30.900 ,7,1,0.,24.0,0.,24.0,0.,24.0,0.,24.0
1979-07-31 01:42:54.900 ,7,0,0.,24.0,0.,24.0,0.,24.0,0.,24.0
1979-07-31 01:43:18.900 ,6,1,0.,24.0,0.,24.0,0.,24.0,0.,24.0
1979-07-31 01:43:42.900 ,6,0,0.,24.0,0.,24.0,0.,24.0,0.,24.0
1979-07-31 01:44:06.900 ,5,1,0.,24.0,0.,24.0,0.,24.0,0.,24.0
1979-07-31 01:44:30.900 ,5,0,0.,24.0,0.,24.0,0.,24.0,0.,24.0
1979-07-31 01:44:54.900 ,4,1,0.,24.0,0.,24.0,0.,24.0,0.,24.0
1979-07-31 01:45:18.900 ,4,0,0.,24.0,0.,24.0,0.,24.0,0.,24.0
1979-07-31 01:45:42.900 ,3,1,0.,24.0,0.,24.0,0.,24.0,0.,24.0
1979-07-31 01:46:06.900 ,3,0,0.,24.0,0.,24.0,0.,24.0,0.,24.0
1979-07-31 01:46:30.900 ,2,1,0.,24.0,0.,24.0,0.,24.0,0.,24.0
1979-07-31 01:46:54.900 ,2,0,0.,24.0,0.,24.0,0.,24.0,0.,24.0
